Location: Great Chart
(51.1333°N, 0.8333°E)
Time: 11:46:34
(UTC+00:00)

Cosmos 372 Rocket - Pass Details

Date: 19 September 2020
Orbit: 739 x 767 km, 74.1° (Epoch: 31 October)

Event Time Altitude Azimuth Distance (km) Brightness Sun altitude
Rises 05:04:19 0° 334° (NNW) 3,221 7.1 -6.2°
Reaches altitude 10° 05:06:42 10° 334° (NNW) 2,287 6.3 -5.8°
Maximum altitude 05:11:53 84° 248° (WSW) 759 4.0 -5.0°
Drops below altitude 10° 05:17:00 10° 160° (SSE) 2,254 6.6 -4.2°
Sets 05:19:20 0° 160° (SSE) 3,170 7.4 -3.9°
